Location: Seattle
(47.6064°N, 122.3308°W)
Time: 19:28:53
(UTC-08:00)

N. Korean satellite - Pass Details

Date: 10 December 2022
Orbit: 407 x 444 km, 97.3° (Epoch: 28 January)

Event Time Altitude Azimuth Distance (km) Brightness Sun altitude
Rises 05:35:21 0° 12° (NNE) 2,494 10.2 -21.1°
Reaches altitude 10° 05:37:25 10° 12° (NNE) 1,607 9.2 -20.8°
Maximum altitude 05:40:52 89° 301° (WNW) 457 6.3 -20.2°
Drops below altitude 10° 05:44:14 10° 194° (SSW) 1,562 9.1 -19.7°
Sets 05:46:13 0° 194° (SSW) 2,416 10.1 -19.3°
